Wiscasset, ME

10:13 AM EST on February 07, 2016 (GMT -0500)
Wiscasset

Weather History for KIWI - December, 2013

Change the Weather History Date:

Tuesday, December 17, 2013

  Actual Average Record
Temperature  
Mean Temperature 2 °F -  
Max Temperature 15 °F 35 °F 57 °F (2000)
Min Temperature -11 °F 18 °F -11 °F (2013)
Degree Days  
Heating Degree Days 63    
Moisture  
Dew Point 0 °F    
Average Humidity 72    
Maximum Humidity 85    
Minimum Humidity 48    
Precipitation  
Precipitation 0.40 in - - ()
Sea Level Pressure  
Sea Level Pressure 30.19 in    
Wind  
Wind Speed 2 mph (NE)    
Max Wind Speed 7 mph    
Max Gust Speed -    
Visibility 5 miles    
Events Fog , Snow    
Averages and records for this station are not official NWS values.
T = Trace of Precipitation, MM = Missing Value Source: NWS Daily Summary

Daily Weather History Graph

Daily Weather History Graph

Search for Another Location

Airport or City:

Trip Planner

Search our weather history database for the weather conditions in past years. The results will help you decide how hot, cold, wet, or windy it might be!

Date:

Astronomy

Dec. 17, 2013 Rise Set
Actual Time 7:08 AM EST 4:02 PM EST
Civil Twilight 6:34 AM EST 4:35 PM EST
Nautical Twilight 5:58 AM EST 5:11 PM EST
Astronomical Twilight 5:23 AM EST 5:46 PM EST
Moon 4:41 PM EST (12/17) 6:59 AM EST (12/17)
Length of Visible Light 10h 00m
Length of Day
8h 54m
Full, 100% of the Moon is Illuminated
Dec 17
Full
Dec 25
Last Quarter
Jan 1
New
Jan 7
First Quarter
Jan 15
Full

Hourly Weather History & Observations

Time (EST) Temp. Windchill Dew Point Humidity Pressure Visibility Wind Dir Wind Speed Gust Speed Precip Events Conditions
12:53 AM 3.0 °F - -11.0 °F 52% 30.21 in 10.0 mi Calm Calm - N/A   Clear
1:53 AM 1.0 °F -6.7 °F -11.0 °F 57% 30.23 in 10.0 mi Variable 3.5 mph - N/A   Clear
2:53 AM -2.0 °F - -11.0 °F 66% 30.25 in 10.0 mi Calm Calm - N/A   Clear
3:53 AM -7.1 °F - -11.9 °F 79% 30.26 in 10.0 mi Calm Calm - N/A   Clear
4:53 AM -8.0 °F - -13.0 °F 79% 30.28 in 10.0 mi Calm Calm - N/A   Clear
5:53 AM -9.0 °F - -16.1 °F 71% 30.30 in 10.0 mi Calm Calm - N/A   Clear
6:53 AM -11.0 °F - -17.0 °F 75% 30.32 in 10.0 mi Calm Calm - N/A   Clear
7:53 AM -9.9 °F - -15.0 °F 78% 30.32 in 10.0 mi Calm Calm - N/A   Clear
8:53 AM 1.9 °F - -8.0 °F 63% 30.32 in 10.0 mi Calm Calm - N/A   Clear
9:53 AM 6.1 °F -0.9 °F -9.0 °F 50% 30.32 in 10.0 mi Variable 3.5 mph - N/A   Clear
10:53 AM 8.1 °F -2.0 °F -8.0 °F 48% 30.30 in 10.0 mi ENE 5.8 mph - N/A   Clear
11:53 AM 10.9 °F - -5.1 °F 49% 30.27 in 10.0 mi Calm Calm - N/A   Clear
12:53 PM 12.9 °F - -2.9 °F 49% 30.25 in 10.0 mi Calm Calm - N/A   Clear
1:53 PM 14.0 °F - -0.9 °F 52% 30.24 in 10.0 mi Calm Calm - N/A   Overcast
2:53 PM 15.1 °F - -0.0 °F 51% 30.24 in 10.0 mi Calm Calm - N/A   Overcast
3:53 PM 12.9 °F - 1.0 °F 59% 30.21 in 10.0 mi Calm Calm - N/A   Mostly Cloudy
4:53 PM 12.9 °F 6.9 °F 1.0 °F 59% 30.18 in 10.0 mi Variable 3.5 mph - N/A   Overcast
5:53 PM 12.9 °F 3.8 °F 1.9 °F 62% 30.17 in 6.0 mi NNE 5.8 mph - 0.00 in Snow Light Snow
6:28 PM 12.0 °F 4.1 °F 5.0 °F 73% 30.15 in 2.0 mi NE 4.6 mph - 0.00 in Snow Light Snow
6:41 PM 12.0 °F 1.5 °F 5.0 °F 73% 30.14 in 1.8 mi NE 6.9 mph - 0.00 in Snow Light Snow
6:53 PM 12.0 °F 5.9 °F 7.0 °F 80% 30.16 in 1.2 mi Variable 3.5 mph - 0.00 in Snow Light Snow
7:17 PM 12.0 °F 5.9 °F 8.1 °F 84% 30.16 in 0.8 mi Variable 3.5 mph - 0.02 in Snow Light Snow
7:34 PM 12.0 °F - 8.1 °F 84% 30.17 in 0.5 mi Calm Calm - 0.05 in Fog , Snow Snow
7:53 PM 12.0 °F 5.9 °F 8.1 °F 84% 30.15 in 0.2 mi Variable 3.5 mph - 0.09 in Fog , Snow Heavy Snow
8:22 PM 12.0 °F 5.9 °F 8.1 °F 84% 30.14 in 0.5 mi Variable 3.5 mph - 0.05 in Fog , Snow Snow
8:53 PM 12.9 °F - 9.0 °F 84% 30.14 in 0.5 mi Calm Calm - 0.09 in Fog , Snow Snow
9:28 PM 12.0 °F 5.9 °F 8.1 °F 84% 30.12 in 1.0 mi Variable 3.5 mph - 0.04 in Snow Light Snow
9:37 PM 12.0 °F 5.9 °F 8.1 °F 84% 30.12 in 1.5 mi Variable 3.5 mph - 0.04 in Snow Light Snow
9:50 PM 12.2 °F 6.1 °F 8.6 °F 85% 30.12 in 0.8 mi Variable 3.5 mph - 0.05 in Snow Light Snow
9:53 PM 12.0 °F - 8.1 °F 84% 30.13 in 0.8 mi Calm Calm - 0.05 in Snow Light Snow
10:08 PM 12.0 °F 5.9 °F 8.1 °F 84% 30.10 in 0.2 mi Variable 3.5 mph - 0.04 in Fog , Snow Heavy Snow
10:19 PM 12.0 °F 4.1 °F 8.1 °F 84% 30.10 in 0.2 mi Variable 4.6 mph - 0.07 in Fog , Snow Heavy Snow
10:50 PM 12.2 °F 6.1 °F 8.6 °F 85% 30.08 in 0.5 mi Variable 3.5 mph - 0.12 in Fog , Snow Snow
10:53 PM 12.0 °F 4.1 °F 8.1 °F 84% 30.09 in 0.5 mi Variable 4.6 mph - 0.13 in Fog , Snow Snow
11:39 PM 12.0 °F 5.9 °F 8.1 °F 84% 30.05 in 0.8 mi Variable 3.5 mph - 0.04 in Snow Light Snow
11:53 PM 10.9 °F 2.9 °F 7.0 °F 84% 30.04 in 0.8 mi Variable 4.6 mph - 0.04 in Snow Light Snow